Hourly Data Report for October 11, 2020

VICTORIA UNIVERSITY CS
BRITISH COLUMBIA
Current Station Operator: ECCC - MSC

48°27'25.200" N
123°18'16.600" W
60.10 m
1018598
71783
WYJ

Download Data

Hourly Data (October 2020)
Hourly Data Report for October 11, 2020
TIME
LST
Temp Definition
°C
Dew Point Definition
°C
Rel Hum Definition
%
Precip. Amount Definition
mm

Wind Dir Definition
10's deg

Wind Spd Definition
km/h
Visibility Definition
km
Stn Press Definition
kPa
Hmdx Definition


Wind Chill Definition


Weather Definition


00:00 9.8 7.4 85 0.0 24 2   100.55     LegendNANA
01:00 10.2 7.3 82 0.0 26 4   100.61     LegendNANA
02:00 10.0 8.2 88 0.8 25 10   100.67     LegendNANA
03:00 9.0 7.6 91 0.2 26 4   100.70     LegendNANA
04:00 7.5 7.3 98 0.0 27 3   100.72     LegendNANA
05:00 8.1 7.6 97 0.0 24 2   100.76     LegendNANA
06:00 9.3 8.6 95 0.0 18 4   100.81     LegendNANA
07:00 9.3 8.7 96 0.0 14 3   100.82     LegendNANA
08:00 9.8 9.3 97 0.0 13 1   100.78     LegendNANA
09:00 9.9 9.2 96 0.0 14 2   100.76     LegendNANA
10:00 9.7 8.7 94 0.0 15 4   100.80     LegendNANA
11:00 9.9 9.7 99 0.9 18 3   100.59     LegendNANA
12:00 10.4 10.2 98 0.7 14 3   100.37     LegendNANA
13:00 10.5 10.3 99 1.8 14 4   100.10     LegendNANA
14:00 10.5 10.2 98 1.3 12 6   99.88     LegendNANA
15:00 10.5 10.4 99 3.4 14 6   99.72     LegendNANA
16:00 10.9 10.8 99 3.3 14 4   99.65     LegendNANA
17:00 11.0 10.9 99 1.6 16 7   99.57     LegendNANA
18:00 10.9 10.8 99 1.2 17 5   99.60     LegendNANA
19:00 10.8 10.7 99 0.0 17 4   99.57     LegendNANA
20:00 10.6 10.5 99 0.2 18 2   99.52     LegendNANA
21:00 10.2 10.1 99 0.2 16 6   99.51     LegendNANA
22:00 12.1 11.6 97 0.0 26 7   99.69     LegendNANA
23:00 12.6 12.4 98 0.0 24 9   99.83     LegendNANA

Notes on Data Quality.

Legend

  • E = Estimated
  • M = Missing
  • NA = Not Available*
  • [empty] = Indicates an unobserved value
Date modified: